Starlink 31870

operational
NORAD ID: 59787 Int'l Des: 2024-093 Owner: SPXS Country: US Constellation: starlink
LEOCIRCULAR

About Starlink 31870

Description loading...

Live Position

Loading 3D Globe...

Upcoming Passes

Altitude History

Altitude vs Time

uPlot chart will show altitude changes over time

Two-Line Element Set

1 59787U 24093F 25352.17737442 -.00001645 00000-0 -50269-4 0 9990
2 59787 43.0028 308.8533 0001097 274.1430 85.9296 15.27574075 90239
Epoch: Dec 18, 2025 • Age: 12 hours

Current Status

Altitude 487.8 km
Velocity 7.62 km/s
Sub-Earth Point -21.82°S, 178.73°W
Launch Date May 18, 2024
Age 1.5 years
Type internet

Technical Details

Classification Payload
Mass 730.00 kg
Dry Mass 700.00 kg
Total Mass 730.00 kg
Length 0.30 m
Diameter 4.10 m
Span 29.00 m
Shape Box + pan
Manufacturer SPXS
Bus Type Starlink V2M
Phase Status In Orbit
Owner/State SPXS/US

Large Constellations

Loading constellations...